Location: La Silve
(44.2414°N, 5.8889°E)
Time: 07:51:46
(UTC+00:00)

CENTAUR R/B - Pass Details

Date: 15 April 2021
Orbit: 742 x 1446 km, 63.4° (Epoch: 18 April)

Event Time Altitude Azimuth Distance (km) Brightness Sun altitude
Rises 19:15:37 0° 321° (NW) 4,197 7.1 -10.0°
Reaches altitude 10° 19:18:18 10° 319° (NW) 3,309 6.4 -10.5°
Maximum altitude 19:26:28 69° 239° (WSW) 1,490 3.6 -11.8°
Drops below altitude 10° 19:35:17 10° 158° (SSE) 3,552 5.0 -13.2°
Enters shadow 19:36:24 - 157° (SSE) 3,911 5.2 -13.3°
